User: anonymous   Login
Location: Unspecified
(0.0000°N, 0.0000°E)
Time: 21:17:09
(UTC+00:00)
Language:

Amsat-Oscar-6 - Orbit

View from above orbital plane
View from above orbital plane
View from above satellite
View from above satellite

Ground track
Ground track

The orbit data is extracted from the following two-line orbital elements,

1  6236U 72082B   17141.82489264 -.00000035 +00000-0 +63820-4 0  9995
2  6236 101.7076 107.3961 0004340 016.3924 013.0515 12.53136892039922
Epoch (UTC): 21 May 2017 19:47:50
Eccentricity: 0.0004340
inclination: 101.7076°
perigee height: 1448 km
apogee height: 1455 km
right ascension of ascending node: 107.3961°
argument of perigee: 16.3924°
revolutions per day: 12.53136892
mean anomaly at epoch: 13.0515°
orbit number at epoch: 3992

The dashed part of the orbit path shows where the satellite is in the earth's shadow,  

DLR